Location: Newark
(52.3500°N, 175.9667°E)
Time: 00:53:27
(UTC+00:00)

Vanguard 1 - Pass Details

Date: 20 April 2021
Orbit: 649 x 3834 km, 34.2° (Epoch: 04 May)

Event Time Altitude Azimuth Distance (km) Brightness Sun altitude
Rises 03:17:00 0° 237° (WSW) 5,993 15.1 35.3°
Reaches altitude 10° 03:20:40 10° 230° (SW) 5,356 15.2 34.9°
Maximum altitude 03:36:32 43° 167° (SSE) 4,369 13.9 32.7°
Drops below altitude 10° 03:57:21 10° 106° (ESE) 6,900 14.0 29.8°
Sets 04:02:55 0° 101° (E) 7,793 14.2 29.0°
